QPF
0.00 0.00 0.02 0.03 0.02 0.02 0.02 0.03 0.05 0.05 0.03 0.02 0.02 0.03 0.02 0.02 0.03 0.03 0.03 0.02 0.03 0.03 0.03 0.03 0.04 0.05 0.04 0.05 0.06 0.11 0.15 0.13 0.08 0.08 0.11 0.16 0.15 0.15 0.09 0.08 0.05 0.04 0.06
0.00 0.00 0.01 0.02 0.02 0.02 0.02 0.02 0.02 0.03 0.03 0.03 0.03 0.03 0.03 0.03 0.03 0.03 0.03 0.03 0.03 0.03 0.03 0.02 0.04 0.05 0.04 0.05 0.06 0.10 0.10 0.08 0.07 0.08 0.09 0.11 0.12 0.14 0.08 0.06 0.04 0.05 0.06
0.00 0.00 0.00 0.01 0.01 0.02 0.01 0.02 0.02 0.02 0.02 0.03 0.03 0.03 0.02 0.03 0.03 0.03 0.03 0.03 0.02 0.03 0.03 0.02 0.04 0.06 0.06 0.05 0.08 0.09 0.08 0.06 0.06 0.08 0.07 0.06 0.08 0.11 0.08 0.06 0.04 0.06 0.06
0.00 0.00 0.00 0.00 0.01 0.02 0.01 0.02 0.03 0.02 0.02 0.02 0.04 0.03 0.03 0.03 0.04 0.04 0.04 0.03 0.03 0.03 0.03 0.03 0.04 0.08 0.07 0.07 0.11 0.08 0.07 0.06 0.06 0.05 0.03 0.03 0.04 0.08 0.07 0.05 0.05 0.05 0.05
0.00 0.00 0.00 0.01 0.01 0.02 0.02 0.02 0.03 0.04 0.04 0.03 0.04 0.05 0.03 0.02 0.03 0.04 0.04 0.04 0.04 0.05 0.04 0.04 0.04 0.11 0.10 0.09 0.09 0.06 0.06 0.07 0.09 0.05 0.03 0.03 0.04 0.07 0.07 0.06 0.06 0.05 0.05
0.00 0.00 0.00 0.01 0.02 0.02 0.02 0.02 0.03 0.04 0.06 0.05 0.04 0.05 0.04 0.02 0.03 0.03 0.04 0.05 0.04 0.04 0.04 0.05 0.04 0.15 0.15 0.10 0.07 0.04 0.05 0.06 0.07 0.05 0.04 0.04 0.04 0.08 0.09 0.07 0.07 0.07 0.05
0.00 0.00 0.00 0.01 0.01 0.01 0.02 0.02 0.03 0.05 0.07 0.08 0.08 0.06 0.06 0.04 0.03 0.03 0.04 0.04 0.04 0.04 0.03 0.03 0.05 0.15 0.13 0.10 0.07 0.05 0.06 0.06 0.03 0.03 0.04 0.04 0.04 0.08 0.10 0.09 0.08 0.08 0.06
0.00 0.00 0.00 0.01 0.01 0.01 0.03 0.04 0.04 0.06 0.07 0.08 0.13 0.11 0.08 0.08 0.06 0.05 0.04 0.04 0.05 0.05 0.05 0.05 0.07 0.15 0.09 0.08 0.07 0.06 0.06 0.04 0.02 0.03 0.04 0.04 0.05 0.06 0.08 0.09 0.07 0.06 0.06
0.01 0.01 0.01 0.01 0.01 0.01 0.03 0.04 0.05 0.07 0.08 0.07 0.09 0.17 0.12 0.11 0.11 0.08 0.06 0.04 0.05 0.06 0.06 0.06 0.10 0.17 0.10 0.07 0.06 0.07 0.07 0.04 0.02 0.04 0.05 0.05 0.07 0.08 0.07 0.07 0.06 0.06 0.06
0.03 0.02 0.02 0.01 0.01 0.01 0.03 0.06 0.08 0.12 0.12 0.08 0.08 0.13 0.16 0.13 0.13 0.12 0.09 0.06 0.04 0.05 0.05 0.06 0.09 0.15 0.11 0.07 0.06 0.07 0.06 0.04 0.03 0.04 0.04 0.05 0.07 0.07 0.07 0.06 0.06 0.06 0.06
0.08 0.05 0.05 0.03 0.02 0.01 0.03 0.04 0.06 0.09 0.12 0.09 0.07 0.08 0.15 0.15 0.14 0.14 0.10 0.09 0.09 0.06 0.05 0.05 0.09 0.14 0.13 0.11 0.09 0.07 0.06 0.04 0.03 0.03 0.03 0.05 0.07 0.08 0.09 0.07 0.06 0.06 0.07
0.09 0.05 0.04 0.03 0.02 0.01 0.02 0.04 0.05 0.05 0.05 0.05 0.06 0.08 0.11 0.16 0.16 0.14 0.09 0.07 0.09 0.08 0.07 0.07 0.10 0.14 0.12 0.11 0.12 0.11 0.06 0.05 0.04 0.02 0.03 0.06 0.08 0.10 0.10 0.09 0.08 0.07 0.08
0.05 0.04 0.03 0.03 0.03 0.03 0.02 0.02 0.03 0.07 0.05 0.04 0.04 0.06 0.08 0.12 0.13 0.10 0.07 0.04 0.05 0.06 0.06 0.05 0.07 0.09 0.09 0.07 0.06 0.07 0.08 0.07 0.06 0.04 0.05 0.08 0.09 0.10 0.11 0.10 0.09 0.07 0.07
0.04 0.03 0.03 0.04 0.04 0.05 0.04 0.03 0.03 0.04 0.04 0.03 0.02 0.03 0.05 0.07 0.08 0.07 0.04 0.02 0.02 0.02 0.04 0.05 0.06 0.07 0.08 0.10 0.07 0.06 0.08 0.11 0.11 0.10 0.10 0.10 0.10 0.11 0.10 0.09 0.08 0.08 0.08
0.04 0.03 0.04 0.06 0.05 0.05 0.04 0.04 0.03 0.03 0.04 0.04 0.03 0.02 0.03 0.03 0.04 0.05 0.05 0.02 0.01 0.01 0.02 0.03 0.06 0.08 0.09 0.11 0.08 0.07 0.08 0.09 0.12 0.16 0.15 0.13 0.13 0.12 0.12 0.11 0.09 0.08 0.08
0.03 0.04 0.05 0.07 0.07 0.07 0.06 0.04 0.04 0.05 0.06 0.05 0.03 0.03 0.03 0.02 0.04 0.05 0.05 0.02 0.01 0.01 0.01 0.03 0.04 0.07 0.06 0.08 0.08 0.08 0.08 0.07 0.08 0.15 0.15 0.11 0.10 0.10 0.10 0.11 0.11 0.09 0.08
0.03 0.04 0.06 0.12 0.09 0.08 0.07 0.05 0.05 0.06 0.06 0.06 0.04 0.03 0.04 0.04 0.04 0.04 0.05 0.02 0.01 0.01 0.01 0.02 0.03 0.05 0.05 0.05 0.06 0.06 0.07 0.06 0.06 0.07 0.10 0.10 0.08 0.08 0.08 0.10 0.13 0.12 0.11
0.03 0.03 0.05 0.08 0.07 0.07 0.06 0.05 0.05 0.05 0.05 0.04 0.03 0.03 0.03 0.04 0.05 0.05 0.05 0.03 0.02 0.02 0.02 0.02 0.02 0.02 0.03 0.03 0.03 0.04 0.04 0.03 0.04 0.07 0.07 0.07 0.07 0.07 0.08 0.11 0.13 0.13 0.13
0.02 0.03 0.04 0.04 0.03 0.04 0.04 0.03 0.03 0.03 0.03 0.03 0.03 0.03 0.03 0.03 0.04 0.05 0.05 0.04 0.04 0.03 0.02 0.02 0.03 0.04 0.05 0.03 0.03 0.03 0.02 0.02 0.03 0.05 0.08 0.06 0.04 0.03 0.05 0.09 0.14 0.17 0.16
0.01 0.02 0.03 0.03 0.03 0.03 0.04 0.04 0.03 0.03 0.03 0.05 0.07 0.08 0.06 0.05 0.05 0.06 0.05 0.04 0.03 0.03 0.02 0.03 0.04 0.06 0.05 0.04 0.04 0.03 0.02 0.02 0.04 0.04 0.07 0.07 0.05 0.03 0.02 0.03 0.06 0.13 0.18
0.02 0.02 0.02 0.03 0.03 0.05 0.05 0.04 0.03 0.02 0.03 0.04 0.07 0.08 0.07 0.05 0.04 0.05 0.05 0.04 0.03 0.03 0.02 0.03 0.06 0.05 0.04 0.03 0.03 0.04 0.04 0.03 0.03 0.04 0.05 0.05 0.04 0.03 0.02 0.02 0.03 0.05 0.10
0.05 0.04 0.04 0.04 0.04 0.05 0.06 0.06 0.05 0.04 0.04 0.05 0.06 0.06 0.05 0.04 0.04 0.04 0.04 0.03 0.03 0.02 0.02 0.02 0.04 0.03 0.04 0.04 0.03 0.04 0.05 0.03 0.01 0.01 0.02 0.02 0.02 0.02 0.02 0.02 0.02 0.03 0.05
0.10 0.09 0.08 0.07 0.07 0.08 0.07 0.07 0.06 0.05 0.04 0.04 0.04 0.03 0.03 0.03 0.04 0.04 0.04 0.04 0.03 0.03 0.02 0.02 0.03 0.04 0.04 0.05 0.04 0.05 0.05 0.04 0.02 0.01 0.01 0.01 0.01 0.01 0.01 0.01 0.03 0.03 0.03
0.05 0.08 0.09 0.07 0.06 0.06 0.05 0.06 0.07 0.06 0.05 0.04 0.04 0.03 0.04 0.05 0.05 0.06 0.07 0.06 0.04 0.04 0.04 0.03 0.03 0.04 0.04 0.04 0.03 0.03 0.03 0.03 0.03 0.03 0.02 0.02 0.01 0.01 0.01 0.02 0.03 0.04 0.04
0.03 0.05 0.05 0.06 0.06 0.06 0.06 0.05 0.07 0.07 0.06 0.07 0.06 0.06 0.08 0.07 0.06 0.08 0.09 0.08 0.07 0.06 0.06 0.04 0.04 0.04 0.04 0.04 0.04 0.03 0.02 0.02 0.02 0.02 0.01 0.02 0.02 0.02 0.02 0.02 0.02 0.02 0.03
0.02 0.02 0.02 0.03 0.04 0.04 0.05 0.06 0.06 0.06 0.07 0.09 0.08 0.07 0.09 0.09 0.08 0.09 0.12 0.10 0.07 0.06 0.05 0.05 0.04 0.03 0.03 0.03 0.03 0.03 0.02 0.02 0.02 0.02 0.01 0.01 0.01 0.01 0.01 0.01 0.01 0.02 0.01
MSLP
1011.23 1010.67 1010.23 1009.96 1009.86 1009.88 1009.99 1010.10 1010.17 1010.18 1010.13 1010.05 1009.98 1009.98 1010.06 1010.23 1010.49 1010.80 1011.14 1011.47 1011.78 1012.06 1012.30 1012.53 1012.74 1012.94 1013.13 1013.31 1013.49 1013.65 1013.82 1014.01 1014.21 1014.44 1014.70 1014.97 1015.24 1015.48 1015.69 1015.86 1016.00 1016.12 1016.24
1011.31 1010.82 1010.43 1010.18 1010.08 1010.09 1010.17 1010.26 1010.31 1010.31 1010.26 1010.20 1010.16 1010.18 1010.29 1010.50 1010.77 1011.09 1011.42 1011.73 1012.01 1012.24 1012.44 1012.61 1012.77 1012.92 1013.08 1013.24 1013.40 1013.56 1013.74 1013.93 1014.15 1014.39 1014.65 1014.91 1015.17 1015.40 1015.61 1015.78 1015.94 1016.09 1016.24
1011.32 1010.92 1010.60 1010.40 1010.32 1010.34 1010.42 1010.50 1010.54 1010.54 1010.50 1010.45 1010.43 1010.47 1010.59 1010.78 1011.04 1011.33 1011.62 1011.87 1012.09 1012.27 1012.42 1012.55 1012.68 1012.82 1012.97 1013.14 1013.31 1013.50 1013.69 1013.90 1014.13 1014.37 1014.62 1014.87 1015.10 1015.32 1015.52 1015.70 1015.86 1016.04 1016.23
1011.25 1010.96 1010.73 1010.60 1010.57 1010.63 1010.72 1010.81 1010.85 1010.85 1010.81 1010.76 1010.73 1010.77 1010.86 1011.03 1011.24 1011.47 1011.69 1011.88 1012.04 1012.16 1012.27 1012.38 1012.51 1012.66 1012.83 1013.03 1013.24 1013.46 1013.68 1013.90 1014.14 1014.37 1014.61 1014.83 1015.05 1015.25 1015.43 1015.61 1015.79 1015.98 1016.20
1011.17 1010.97 1010.84 1010.79 1010.84 1010.93 1011.05 1011.14 1011.18 1011.17 1011.12 1011.05 1011.01 1011.01 1011.07 1011.19 1011.34 1011.50 1011.65 1011.78 1011.88 1011.96 1012.05 1012.16 1012.30 1012.48 1012.69 1012.93 1013.17 1013.42 1013.66 1013.90 1014.13 1014.36 1014.57 1014.78 1014.97 1015.15 1015.33 1015.50 1015.69 1015.90 1016.13
1011.13 1011.02 1010.98 1011.01 1011.11 1011.25 1011.38 1011.47 1011.50 1011.46 1011.37 1011.27 1011.19 1011.15 1011.17 1011.24 1011.34 1011.44 1011.53 1011.60 1011.66 1011.72 1011.80 1011.92 1012.08 1012.29 1012.54 1012.81 1013.08 1013.35 1013.60 1013.83 1014.05 1014.26 1014.46 1014.65 1014.83 1015.00 1015.17 1015.35 1015.54 1015.75 1016.00
1011.23 1011.18 1011.20 1011.29 1011.43 1011.59 1011.71 1011.78 1011.76 1011.67 1011.53 1011.39 1011.27 1011.19 1011.18 1011.21 1011.26 1011.33 1011.38 1011.43 1011.46 1011.51 1011.59 1011.71 1011.89 1012.12 1012.38 1012.66 1012.93 1013.19 1013.42 1013.64 1013.84 1014.02 1014.21 1014.39 1014.58 1014.75 1014.93 1015.11 1015.30 1015.52 1015.77
1011.50 1011.48 1011.54 1011.66 1011.81 1011.96 1012.05 1012.06 1011.98 1011.82 1011.63 1011.43 1011.27 1011.17 1011.13 1011.14 1011.18 1011.23 1011.27 1011.30 1011.33 1011.37 1011.44 1011.56 1011.74 1011.96 1012.20 1012.46 1012.70 1012.92 1013.11 1013.29 1013.46 1013.63 1013.80 1013.99 1014.19 1014.38 1014.57 1014.77 1014.97 1015.19 1015.43
1011.96 1011.96 1012.02 1012.14 1012.27 1012.37 1012.40 1012.34 1012.18 1011.95 1011.69 1011.45 1011.26 1011.15 1011.10 1011.12 1011.16 1011.21 1011.25 1011.27 1011.29 1011.31 1011.37 1011.47 1011.62 1011.80 1012.00 1012.20 1012.38 1012.53 1012.67 1012.79 1012.93 1013.08 1013.25 1013.45 1013.67 1013.89 1014.11 1014.32 1014.53 1014.75 1014.99
1012.55 1012.55 1012.61 1012.71 1012.80 1012.84 1012.79 1012.64 1012.40 1012.10 1011.79 1011.52 1011.31 1011.19 1011.16 1011.18 1011.24 1011.30 1011.33 1011.34 1011.34 1011.34 1011.37 1011.43 1011.53 1011.65 1011.78 1011.91 1012.01 1012.09 1012.15 1012.22 1012.31 1012.44 1012.61 1012.82 1013.06 1013.31 1013.55 1013.78 1014.01 1014.23 1014.46
1013.19 1013.20 1013.25 1013.31 1013.35 1013.32 1013.20 1012.98 1012.67 1012.32 1011.97 1011.67 1011.46 1011.35 1011.33 1011.37 1011.43 1011.48 1011.51 1011.50 1011.47 1011.44 1011.42 1011.43 1011.46 1011.52 1011.58 1011.62 1011.65 1011.64 1011.63 1011.64 1011.68 1011.78 1011.94 1012.15 1012.41 1012.68 1012.94 1013.19 1013.42 1013.65 1013.89
1013.78 1013.80 1013.84 1013.88 1013.88 1013.79 1013.61 1013.33 1012.98 1012.59 1012.23 1011.93 1011.73 1011.63 1011.61 1011.65 1011.71 1011.75 1011.75 1011.71 1011.64 1011.56 1011.50 1011.45 1011.43 1011.42 1011.41 1011.39 1011.33 1011.26 1011.18 1011.12 1011.11 1011.17 1011.30 1011.50 1011.75 1012.02 1012.30 1012.55 1012.79 1013.02 1013.27
1014.22 1014.26 1014.31 1014.33 1014.30 1014.19 1013.98 1013.67 1013.30 1012.92 1012.56 1012.27 1012.08 1011.99 1011.97 1012.00 1012.03 1012.04 1012.00 1011.92 1011.81 1011.69 1011.57 1011.48 1011.42 1011.36 1011.30 1011.22 1011.11 1010.97 1010.83 1010.71 1010.64 1010.64 1010.73 1010.89 1011.11 1011.37 1011.63 1011.88 1012.12 1012.35 1012.60
1014.46 1014.54 1014.60 1014.62 1014.58 1014.46 1014.25 1013.96 1013.61 1013.25 1012.92 1012.66 1012.47 1012.38 1012.35 1012.35 1012.34 1012.31 1012.23 1012.10 1011.95 1011.79 1011.64 1011.52 1011.42 1011.34 1011.24 1011.12 1010.97 1010.78 1010.58 1010.39 1010.25 1010.19 1010.21 1010.31 1010.48 1010.70 1010.92 1011.15 1011.38 1011.61 1011.87
1014.53 1014.63 1014.70 1014.73 1014.70 1014.60 1014.42 1014.16 1013.86 1013.55 1013.26 1013.02 1012.85 1012.74 1012.68 1012.65 1012.60 1012.51 1012.39 1012.22 1012.04 1011.86 1011.69 1011.55 1011.43 1011.33 1011.21 1011.06 1010.87 1010.64 1010.39 1010.13 1009.92 1009.78 1009.71 1009.74 1009.83 1009.98 1010.16 1010.35 1010.56 1010.78 1011.05
1014.47 1014.58 1014.65 1014.69 1014.68 1014.61 1014.47 1014.28 1014.05 1013.79 1013.54 1013.33 1013.16 1013.04 1012.94 1012.86 1012.77 1012.64 1012.48 1012.29 1012.09 1011.89 1011.71 1011.57 1011.44 1011.32 1011.18 1011.00 1010.78 1010.50 1010.18 1009.87 1009.57 1009.34 1009.19 1009.12 1009.13 1009.20 1009.32 1009.46 1009.64 1009.85 1010.11
1014.36 1014.46 1014.52 1014.57 1014.57 1014.54 1014.47 1014.34 1014.17 1013.98 1013.78 1013.58 1013.41 1013.26 1013.13 1013.00 1012.86 1012.71 1012.53 1012.33 1012.12 1011.91 1011.73 1011.57 1011.42 1011.27 1011.10 1010.89 1010.61 1010.29 1009.92 1009.53 1009.17 1008.85 1008.61 1008.45 1008.37 1008.36 1008.41 1008.51 1008.64 1008.82 1009.08
1014.29 1014.36 1014.40 1014.44 1014.46 1014.47 1014.45 1014.39 1014.29 1014.14 1013.97 1013.79 1013.60 1013.42 1013.25 1013.09 1012.92 1012.75 1012.56 1012.35 1012.14 1011.94 1011.74 1011.55 1011.37 1011.18 1010.96 1010.69 1010.36 1009.98 1009.56 1009.11 1008.68 1008.30 1007.98 1007.74 1007.58 1007.50 1007.49 1007.53 1007.61 1007.76 1007.99
1014.30 1014.33 1014.35 1014.37 1014.41 1014.45 1014.48 1014.47 1014.42 1014.32 1014.17 1013.99 1013.78 1013.57 1013.37 1013.17 1012.99 1012.80 1012.61 1012.41 1012.20 1011.98 1011.76 1011.54 1011.30 1011.04 1010.75 1010.42 1010.03 1009.59 1009.12 1008.63 1008.15 1007.71 1007.34 1007.04 1006.83 1006.69 1006.61 1006.60 1006.63 1006.73 1006.91
1014.39 1014.39 1014.38 1014.40 1014.44 1014.51 1014.58 1014.62 1014.61 1014.54 1014.40 1014.21 1013.98 1013.74 1013.51 1013.29 1013.09 1012.90 1012.71 1012.51 1012.30 1012.06 1011.80 1011.52 1011.21 1010.88 1010.51 1010.10 1009.65 1009.16 1008.65 1008.13 1007.62 1007.16 1006.76 1006.42 1006.17 1005.99 1005.86 1005.79 1005.78 1005.82 1005.94
1014.53 1014.51 1014.49 1014.51 1014.57 1014.66 1014.75 1014.83 1014.85 1014.80 1014.67 1014.47 1014.22 1013.96 1013.70 1013.46 1013.25 1013.05 1012.86 1012.66 1012.44 1012.17 1011.86 1011.52 1011.13 1010.71 1010.26 1009.78 1009.28 1008.75 1008.21 1007.68 1007.17 1006.70 1006.29 1005.95 1005.67 1005.45 1005.29 1005.18 1005.11 1005.09 1005.13
1014.65 1014.65 1014.64 1014.67 1014.74 1014.85 1014.98 1015.08 1015.12 1015.09 1014.96 1014.75 1014.49 1014.21 1013.93 1013.68 1013.46 1013.26 1013.06 1012.85 1012.60 1012.30 1011.94 1011.53 1011.07 1010.58 1010.06 1009.52 1008.97 1008.42 1007.88 1007.35 1006.85 1006.39 1005.98 1005.63 1005.34 1005.11 1004.92 1004.77 1004.65 1004.56 1004.53
1014.71 1014.75 1014.78 1014.83 1014.92 1015.05 1015.20 1015.32 1015.38 1015.36 1015.24 1015.03 1014.77 1014.48 1014.19 1013.93 1013.70 1013.49 1013.28 1013.05 1012.78 1012.44 1012.03 1011.57 1011.05 1010.50 1009.93 1009.36 1008.79 1008.23 1007.69 1007.16 1006.67 1006.22 1005.82 1005.46 1005.17 1004.92 1004.71 1004.53 1004.38 1004.24 1004.14
1014.67 1014.78 1014.85 1014.94 1015.05 1015.20 1015.36 1015.49 1015.57 1015.56 1015.45 1015.26 1015.00 1014.71 1014.42 1014.16 1013.92 1013.69 1013.47 1013.22 1012.92 1012.55 1012.11 1011.61 1011.06 1010.48 1009.89 1009.30 1008.73 1008.17 1007.62 1007.11 1006.62 1006.16 1005.75 1005.39 1005.09 1004.83 1004.61 1004.42 1004.24 1004.07 1003.92
1014.55 1014.73 1014.86 1014.97 1015.10 1015.26 1015.42 1015.56 1015.64 1015.65 1015.56 1015.39 1015.15 1014.88 1014.60 1014.33 1014.08 1013.85 1013.61 1013.34 1013.01 1012.62 1012.17 1011.65 1011.10 1010.51 1009.92 1009.34 1008.77 1008.21 1007.66 1007.14 1006.63 1006.15 1005.72 1005.34 1005.02 1004.75 1004.53 1004.34 1004.16 1003.99 1003.82
1014.38 1014.63 1014.80 1014.93 1015.07 1015.21 1015.36 1015.50 1015.59 1015.61 1015.55 1015.41 1015.20 1014.95 1014.68 1014.42 1014.17 1013.92 1013.67 1013.38 1013.04 1012.65 1012.19 1011.69 1011.15 1010.59 1010.02 1009.45 1008.88 1008.32 1007.76 1007.20 1006.65 1006.13 1005.66 1005.24 1004.90 1004.63 1004.42 1004.25 1004.10 1003.95 1003.79
Thickness
5791 5792 5790 5787 5785 5783 5782 5781 5780 5780 5779 5777 5776 5775 5774 5772 5771 5770 5769 5768 5767 5766 5766 5765 5764 5763 5763 5762 5761 5760 5759 5758 5757 5756 5756 5754 5753 5752 5751 5750 5749 5748 5747
5795 5792 5789 5786 5783 5781 5780 5779 5777 5777 5775 5774 5773 5773 5771 5770 5768 5767 5766 5765 5764 5763 5763 5762 5761 5761 5760 5760 5759 5758 5757 5756 5755 5754 5754 5753 5752 5750 5749 5749 5748 5746 5745
5794 5790 5786 5784 5781 5779 5777 5776 5775 5774 5773 5771 5770 5769 5768 5767 5765 5764 5763 5762 5761 5760 5760 5759 5758 5758 5757 5756 5756 5755 5755 5754 5753 5752 5751 5750 5750 5749 5748 5747 5746 5745 5744
5792 5788 5785 5782 5779 5776 5775 5773 5772 5771 5770 5768 5767 5766 5765 5764 5763 5761 5760 5759 5758 5757 5756 5756 5755 5755 5754 5754 5753 5752 5752 5752 5750 5749 5748 5748 5748 5747 5746 5745 5744 5743 5741
5788 5785 5782 5779 5776 5774 5772 5770 5769 5768 5766 5765 5764 5763 5762 5760 5759 5758 5757 5756 5755 5754 5753 5753 5752 5752 5751 5751 5751 5750 5750 5749 5748 5746 5746 5746 5746 5745 5744 5743 5742 5740 5739
5785 5782 5780 5777 5773 5771 5769 5767 5766 5765 5763 5762 5761 5759 5758 5757 5756 5755 5754 5753 5752 5751 5750 5750 5749 5749 5748 5748 5748 5748 5747 5747 5745 5744 5744 5743 5743 5742 5741 5740 5739 5738 5737
5781 5779 5776 5773 5771 5769 5767 5764 5763 5761 5760 5758 5757 5756 5755 5754 5752 5751 5750 5749 5749 5748 5748 5747 5746 5745 5745 5745 5745 5745 5745 5744 5743 5741 5741 5740 5740 5739 5739 5737 5736 5735 5734
5779 5776 5772 5769 5767 5765 5763 5762 5760 5758 5757 5755 5754 5752 5751 5750 5749 5748 5747 5746 5745 5745 5744 5744 5744 5743 5743 5742 5742 5742 5741 5742 5741 5739 5738 5737 5737 5736 5735 5734 5733 5732 5732
5775 5772 5769 5766 5763 5760 5759 5758 5757 5755 5753 5752 5750 5748 5748 5746 5746 5745 5744 5744 5743 5742 5741 5741 5741 5740 5740 5739 5739 5739 5738 5738 5737 5736 5736 5735 5734 5734 5732 5731 5730 5730 5729
5768 5766 5765 5762 5759 5757 5755 5754 5754 5752 5750 5748 5747 5745 5744 5743 5742 5741 5741 5741 5740 5739 5739 5738 5738 5736 5736 5736 5736 5736 5735 5735 5734 5733 5733 5732 5731 5731 5729 5729 5728 5727 5726
5762 5761 5759 5758 5755 5753 5752 5751 5750 5749 5747 5745 5744 5742 5741 5740 5738 5738 5738 5737 5737 5736 5736 5735 5734 5734 5733 5732 5732 5732 5732 5731 5730 5729 5729 5729 5728 5728 5727 5726 5725 5725 5724
5757 5756 5755 5753 5752 5750 5749 5748 5746 5745 5743 5741 5740 5739 5737 5736 5735 5734 5734 5734 5734 5733 5732 5732 5731 5730 5729 5729 5728 5728 5728 5728 5727 5726 5727 5726 5726 5725 5724 5724 5723 5722 5721
5756 5753 5751 5749 5748 5746 5745 5744 5743 5741 5739 5737 5736 5735 5733 5732 5731 5730 5730 5729 5729 5728 5728 5727 5727 5726 5725 5725 5724 5724 5724 5724 5724 5723 5724 5723 5723 5723 5722 5721 5720 5720 5719
5753 5750 5748 5746 5744 5742 5741 5740 5739 5737 5736 5734 5732 5731 5729 5728 5727 5727 5726 5726 5725 5724 5724 5723 5723 5723 5722 5721 5721 5721 5721 5721 5720 5720 5720 5720 5719 5719 5719 5718 5718 5717 5716
5750 5748 5745 5743 5741 5739 5738 5737 5736 5734 5733 5731 5729 5728 5726 5725 5724 5723 5722 5722 5721 5721 5720 5720 5719 5719 5718 5718 5718 5718 5718 5718 5717 5717 5716 5716 5716 5715 5715 5715 5715 5714 5713
5748 5745 5743 5741 5738 5736 5735 5734 5733 5731 5730 5728 5726 5725 5724 5723 5721 5720 5718 5718 5718 5718 5717 5716 5716 5715 5715 5714 5714 5714 5714 5714 5714 5714 5713 5712 5712 5712 5712 5712 5712 5711 5710
5747 5744 5741 5740 5737 5735 5733 5732 5731 5729 5727 5725 5724 5723 5722 5720 5719 5717 5716 5715 5714 5714 5713 5712 5712 5711 5711 5710 5710 5710 5710 5710 5710 5710 5710 5709 5709 5709 5709 5709 5708 5708 5707
5747 5742 5740 5739 5736 5734 5732 5730 5729 5727 5724 5723 5722 5721 5719 5718 5716 5714 5713 5711 5711 5710 5709 5708 5708 5706 5706 5705 5705 5705 5705 5706 5706 5706 5706 5706 5705 5705 5705 5705 5705 5704 5704
5747 5742 5738 5736 5734 5732 5730 5728 5727 5724 5722 5720 5719 5718 5716 5715 5713 5712 5710 5708 5707 5706 5706 5705 5703 5702 5701 5701 5701 5700 5700 5701 5701 5702 5702 5702 5701 5701 5701 5701 5701 5700 5700
5745 5742 5738 5735 5731 5729 5726 5724 5722 5720 5719 5717 5716 5715 5713 5712 5710 5709 5707 5705 5704 5702 5701 5700 5699 5698 5697 5697 5697 5696 5696 5696 5697 5697 5697 5697 5696 5696 5696 5696 5697 5696 5696
5742 5739 5736 5732 5729 5726 5722 5720 5718 5715 5714 5713 5713 5711 5710 5709 5707 5706 5704 5702 5701 5699 5698 5697 5695 5693 5692 5692 5690 5689 5690 5691 5692 5692 5692 5692 5691 5691 5691 5691 5691 5691 5691
5738 5736 5733 5730 5727 5724 5722 5719 5717 5714 5712 5711 5709 5708 5707 5705 5704 5703 5701 5700 5698 5696 5694 5693 5692 5689 5687 5687 5685 5682 5681 5682 5685 5687 5686 5686 5686 5685 5686 5686 5686 5685 5686
5735 5732 5731 5727 5724 5722 5720 5717 5714 5711 5709 5707 5705 5704 5703 5702 5700 5700 5698 5697 5695 5694 5691 5690 5689 5687 5684 5682 5682 5680 5676 5674 5675 5678 5679 5680 5680 5680 5680 5681 5681 5681 5681
5732 5729 5727 5724 5721 5719 5717 5714 5711 5707 5704 5703 5702 5701 5699 5698 5697 5696 5695 5693 5692 5690 5688 5687 5686 5684 5682 5679 5677 5677 5675 5674 5670 5669 5671 5673 5674 5675 5675 5676 5676 5676 5677
5728 5725 5722 5719 5717 5716 5713 5711 5708 5705 5702 5701 5699 5697 5695 5694 5694 5692 5691 5689 5688 5686 5685 5684 5682 5681 5679 5676 5674 5672 5670 5669 5667 5665 5663 5664 5666 5669 5670 5671 5671 5671 5672
5723 5720 5718 5715 5713 5712 5710 5708 5705 5702 5699 5697 5695 5693 5691 5689 5689 5688 5687 5685 5684 5683 5681 5680 5679 5678 5675 5674 5672 5670 5668 5665 5663 5661 5659 5659 5659 5662 5665 5666 5667 5667 5667